EW6618 Weather Reports


Display with metric or nautical units.
time (UTC)temp
F
wind
direction
speed
MPH
gust
MPH
rain 1hr
in
rain 24hr
in
rain mn
in
humidity
%
barometer
mb
20260505013930 62 272 12.0 15.0 0.00 0.00 0.00 81 1015.2
20260505012917 62 236 10.0 16.0 0.00 0.00 0.00 80 1015.3
20260505010735 62 328 9.0 18.0 0.00 0.00 0.00 79 1015.4
20260505004613 62 271 9.0 14.0 0.00 0.00 0.00 79 1015.4
20260505003625 62 200 9.0 14.0 0.00 0.00 0.00 78 1015.4
20260505002625 63 221 10.0 14.0 0.00 0.00 0.00 79 1015.5
20260505001622 63 246 9.0 13.0 0.00 0.00 0.00 78 1015.5
20260505000622 62 277 11.0 16.0 0.00 0.00 0.00 78 1015.6
20260504235645 62 226 11.0 18.0 0.00 0.00 0.00 78 1015.4
20260504234643 63 32 11.0 18.0 0.00 0.00 0.00 78 1015.3
20260504233640 63 214 13.0 18.0 0.00 0.00 0.00 78 1015.3
20260504232701 63 281 12.0 18.0 0.00 0.00 0.00 77 1015.3
20260504231721 63 177 13.0 18.0 0.00 0.00 0.00 79 1015.2
20260504230650 63 236 13.0 21.0 0.00 0.00 0.00 75 1015.3
20260504225621 64 226 13.0 21.0 0.00 0.00 0.00 75 1015.5
20260504224609 64 332 12.0 17.0 0.00 0.00 0.00 75 1015.6
20260504223538 65 3 11.0 17.0 0.00 0.00 0.00 74 1015.7
20260504222604 65 259 11.0 16.0 0.00 0.00 0.00 74 1015.9
20260504221541 66 219 11.0 14.0 0.00 0.00 0.00 74 1016.0
20260504220521 66 319 11.0 15.0 0.00 0.00 0.00 73 1016.2
20260504215516 66 198 11.0 16.0 0.00 0.00 0.00 73 1016.2
20260504214445 66 42 11.0 17.0 0.00 0.00 0.00 73 1016.3
20260504213452 66 195 9.0 17.0 0.00 0.00 0.00 74 1016.5
20260504212437 66 225 8.0 13.0 0.00 0.00 0.00 74 1016.5
20260504210258 66 226 7.0 11.0 0.00 0.00 0.00 71 1016.8
20260504205231 67 313 7.0 11.0 0.00 0.00 0.00 70 1016.5
20260504204201 67 309 6.0 9.0 0.00 0.00 0.00 69 1016.5
20260504202054 67 245 6.0 11.0 0.00 0.00 0.00 68 1016.5
20260504195918 67 143 6.0 10.0 0.00 0.00 0.00 65 1016.7
20260504193813 67 271 7.0 11.0 0.00 0.00 0.00 68 1016.7
20260504192813 67 49 8.0 11.0 0.00 0.00 0.00 68 1016.6
20260504191741 66 229 8.0 12.0 0.00 0.00 0.00 68 1016.8
20260504190755 66 234 8.0 13.0 0.00 0.00 0.00 68 1016.7
20260504185813 66 225 8.0 13.0 0.00 0.00 0.00 68 1016.5
20260504182446 67 225 6.0 11.0 0.00 0.00 0.00 71 1016.7
20260504181421 65 309 6.0 10.0 0.00 0.00 0.00 73 1016.8
20260504180439 65 239 6.0 9.0 0.00 0.00 0.00 73 1016.7
20260504175429 65 281 6.0 9.0 0.00 0.00 0.00 73 1016.8
20260504174419 65 246 6.0 10.0 0.00 0.00 0.00 75 1016.8
20260504173416 64 212 6.0 11.0 0.00 0.00 0.00 76 1016.7
20260504172435 63 237 7.0 11.0 0.00 0.00 0.00 76 1016.7
20260504171430 63 8 6.0 10.0 0.00 0.00 0.00 75 1016.6
20260504170423 64 72 6.0 10.0 0.00 0.00 0.00 74 1016.4
20260504160334 61 243 8.0 13.0 0.00 0.00 0.00 77 1016.1
20260504140704 59 268 9.0 14.0 0.00 0.00 0.00 81 1015.5
20260504100446 59 246 8.0 11.0 0.00 0.00 0.00 84 1014.7
20260504070119 59 246 11.0 19.0 0.00 0.00 0.00 82 1016.1
20260504045954 60 250 6.0 9.0 0.00 0.00 0.00 77 1015.6
20260504044928 60 243 5.0 8.0 0.00 0.00 0.00 78 1015.6
20260504042826 60 265 6.0 11.0 0.00 0.00 0.00 80 1015.5
20260504041806 60 229 6.0 13.0 0.00 0.00 0.00 81 1015.4
20260504040831 60 235 7.0 13.0 0.00 0.00 0.00 82 1015.1
20260504035809 60 300 7.0 12.0 0.00 0.00 0.00 83 1015.1
20260504034752 60 262 8.0 13.0 0.00 0.00 0.00 83 1014.8
20260504033753 60 265 8.0 13.0 0.00 0.00 0.00 83 1014.9
20260504032736 60 333 8.0 14.0 0.00 0.00 0.00 83 1014.7
20260504031750 60 321 10.0 14.0 0.00 0.00 0.00 81 1014.5
20260504023404 60 285 9.0 16.0 0.00 0.00 0.00 78 1014.3
20260504022356 60 256 9.0 16.0 0.00 0.00 0.00 78 1014.4
20260504021407 60 281 9.0 16.0 0.00 0.00 0.00 77 1014.1
20260504020426 60 288 9.0 16.0 0.00 0.00 0.00 78 1014.2
20260504015423 60 290 9.0 16.0 0.00 0.00 0.00 78 1014.1
20260504014405 60 276 9.0 14.0 0.00 0.00 0.00 79 1014.1